カタログに戻る

STARLINK-2061

運用中通信VLEO
NORAD 48312·PAYLOAD·🇺🇸 United States

打ち上げ Apr 29, 2021 から Cape Canaveral Space Force Station

Loading…

次のパス (今後24時間)

TLE

最新Source: CelesTrak SupGP

元期: Sep 14, 2026, 13:23 UTC

1 48312C 21036AN  26257.55812500  .00048115  00000+0  15473-2 0  2575
2 48312  53.1587 289.4728 0001246  73.7823 280.1247 15.31677919    16

AllMySatでSTARLINK-2061をリアルタイム追跡

Download on the App Store